{"data":{"norad_id":28089,"intl_designator":"2003-053A","name":"YAMAL 202","alt_names":[],"object_type":"PAYLOAD","status":"ACTIVE","operator":null,"country":"CIS","launch_date":"2003-11-24","launch_site_code":"TYMSC","launch_vehicle":null,"mission":null,"orbit_class":"UNKNOWN","rcs_meters":79.4328,"size_class":null,"mass_kg":null,"dimensions":null,"purposes":["comms"],"wikipedia_slug":null,"has_3d_model":false,"image_url":null,"decayed_at":null,"tle_current":{"epoch":"2026-09-19T17:44:54.345696Z","epoch_age_seconds":79996,"freshness":"FRESH","line1":"1 28089U 03053A   26262.73951789 -.00000082  00000+0  00000+0 0  9994","line2":"2 28089   6.5754  69.7464 0004756 129.6158 229.0818  1.00271969 83642","mean_motion":1.00271969,"eccentricity":0.0004756,"inclination_deg":6.5754,"raan_deg":69.7464,"arg_perigee_deg":129.6158,"mean_anomaly_deg":229.0818,"bstar":0,"rev_number":8364,"period_min":1436.0942687781,"perigee_km":35766.489857402,"apogee_km":35806.596901379,"semimajor_km":42164.68037939,"source":"CELESTRAK","updated_at":"2026-09-20T09:00:35.122660Z"}}}